Location: Key Biscayne
(25.6930°N, 80.1630°W)
Time: 05:13:05
(UTC-04:00)

CZ-2D R/B - Visible Passes

Search period start: 06 July 2015 00:00
Search period end: 16 July 2015 00:00
Orbit: 530 x 546 km, 97.6° (Epoch: 05 July)

Date Brightness Start Highest point End Pass type
(mag) Time Alt. Az. Time Alt. Az. Time Alt. Az.
06 Jul 3.2 20:59:28 10° SSE 21:03:20 84° ENE 21:07:14 10° N visible
07 Jul 3.3 20:51:33 10° SSE 20:55:22 63° ENE 20:59:14 10° N visible
08 Jul 3.6 20:43:42 10° SSE 20:47:25 47° ENE 20:51:12 10° N visible
09 Jul 4.0 20:35:54 10° SE 20:39:28 36° ENE 20:43:05 10° N visible
10 Jul 6.2 22:04:24 10° WSW 22:06:06 12° W 22:07:34 10° WNW visible
11 Jul 6.0 21:55:34 10° SW 21:58:02 16° W 22:00:21 10° WNW visible
12 Jul 5.7 21:47:01 10° SW 21:49:59 20° W 21:52:52 10° NW visible
13 Jul 5.3 21:38:38 10° SSW 21:41:57 26° W 21:45:12 10° NW visible
14 Jul 4.9 21:30:21 10° SSW 21:33:54 33° W 21:37:27 10° NNW visible
15 Jul 4.4 21:22:09 10° S 21:25:53 44° W 21:29:37 10° NNW visible
